Regional Weather Roundup
Issued by NWS

Home | Current Version | Previous Version | Graphics & Text | Print | Product List | Glossary Off
Versions: 1 2 3 4 5 6 7 8 9 10 11 12 13 14 15 16 17 18 19 20 21 22 23 24 25 26 27 28 29 30 31 32 33 34 35 36 37 38 39 40 41 42 43 44 45 46 47 48 49 50

000
ASUS43 KMKX 040411
RWRWI

WISCONSIN REGIONAL WEATHER ROUNDUP
NATIONAL WEATHER SERVICE MILWAUKEE/SULLIVAN WI
1100 PM CDT MON AUG 03 2015

NOTE: "FAIR" INDICATES FEW OR NO CLOUDS BELOW 12,000 FEET WITH NO
SIGNIFICANT WEATHER AND/OR OBSTRUCTIONS TO VISIBILITY.

WIZ001-002-006>008-014>016-023>028-040500-
NORTHWEST WISCONSIN

CITY           SKY/WX    TMP DP  RH WIND       PRES   REMARKS
SUPERIOR ARPT  MOCLDY    60  53  75 W3        29.90R
ASHLAND        CLOUDY    62  56  80 W5        29.88S
HAYWARD        CLEAR     64  52  64 VRB3      29.90S
SIREN          CLEAR     61  52  73 NW3       29.93R
CUMBERLAND     PTCLDY    59  52  77 NW5       29.93R
RICE LAKE      PTCLDY    62  54  73 CALM      29.93R
CHETEK         PTCLDY    65  55  69 W3        29.91R
LADYSMITH      CLOUDY    65  55  68 W8        29.91S
EAU CLAIRE     CLOUDY    66  53  63 W5        29.89S
MENOMONIE      MOCLDY    67  56  67 W6        29.91R
NEW RICHMOND   MOCLDY    61  54  76 CALM      29.93R
OSCEOLA        MOCLDY    61  56  82 CALM      29.95R
$$

WIZ003>005-009-010-017-018-040500-
NORTH CENTRAL WISCONSIN

CITY           SKY/WX    TMP DP  RH WIND       PRES   REMARKS
MANITOWISH WTR CLOUDY    57  57 100 NW7       29.89S
ARBOR VITAE    CLOUDY    59  57  93 CALM      29.89S
WOODRUFF       CLOUDY    59  57  93 CALM      29.89S
RHINELANDER    CLOUDY    60  55  83 N3        29.89S
EAGLE RIVER    MOCLDY    55  55 100 CALM      29.88S
LAND O LAKES   LGT RAIN  58  56  94 NW8       29.89S
PHILLIPS       CLOUDY    62  56  81 CALM      29.89S
TOMAHAWK       CLOUDY    60  54  80 CALM      29.89S
MEDFORD        CLOUDY    62  56  80 CALM      29.90S
MERRILL        NOT AVBL
$$

WIZ029-030-035-036-043>047-040500-
CENTRAL WISCONSIN

CITY           SKY/WX    TMP DP  RH WIND       PRES   REMARKS
WAUSAU         CLOUDY    65  55  70 NW3       29.88R
MOSINEE        CLOUDY    61  54  77 W6        29.90S
MARSHFIELD     MOCLDY    57  52  83 SW6       29.90S
STEVENS POINT  CLEAR     57  51  80 CALM      29.90S
WAUPACA        CLEAR     62  53  73 CALM      29.89S
WAUTOMA        CLEAR     61  53  74 CALM      29.91R
WISC RAPIDS    LGT RAIN  56  51  84 W5        29.91S
CAMP DOUGLAS   PTCLDY    54  54 100 CALM      29.91R
$$

WIZ011>013-019>022-031-037>040-048>050-040500-
NORTHEAST WISCONSIN

CITY           SKY/WX    TMP DP  RH WIND       PRES   REMARKS
ANTIGO         MOCLDY    54  52  92 W5        29.89R
SHAWANO        CLEAR     62  55  79 CALM      29.87S
OCONTO         PTCLDY    56  56 100 CALM      29.85S
STURGEON BAY   PTCLDY    63  52  67 CALM      29.87S
GREEN BAY      PTCLDY    65  56  72 W7        29.87R
MANITOWOC      CLOUDY    68  56  65 MISG      29.87S
APPLETON       PTCLDY    63  50  63 NW7       29.89S
CLINTONVILLE   CLEAR     59  54  82 SW3       29.87S
OSHKOSH        CLEAR     64  53  67 W3        29.89R
$$

WIZ032>034-041-042-053>061-040500-
SOUTHWEST WISCONSIN

CITY           SKY/WX    TMP DP  RH WIND       PRES   REMARKS
LA CROSSE      CLEAR     65  55  70 SE5       29.91R
SPARTA         CLEAR     56  52  84 CALM      29.93R
VIROQUA        CLEAR     60  53  78 SW3       29.94S
BOSCOBEL       CLEAR     59  55  87 CALM      29.93S
PRAIRIE DU CHI CLEAR     62  55  77 CALM      29.92F
PLATTEVILLE    CLEAR     64  55  70 CALM      29.94S
$$

WIZ056-057-062-063-064-067-068-040500-
SOUTH CENTRAL WISCONSIN

CITY           SKY/WX    TMP DP  RH WIND       PRES   REMARKS
REEDSBURG      CLEAR     60  54  78 CALM      29.92S
BARABOO/DELLS  CLEAR     60  50  69 CALM      29.92S
LONE ROCK      CLEAR     59  54  83 CALM      29.93R
MINERAL POINT  CLEAR     64  52  63 CALM      29.94S
MADISON        PTCLDY    64  52  64 NW3       29.91S
MIDDLETON      PTCLDY    61  54  77 CALM      29.93R
WATERTOWN      CLEAR     62  54  74 CALM      29.90S
MONROE         PTCLDY    68  54  60 W8        29.93S
JANESVILLE     CLEAR     64  54  68 W3        29.91S
$$

WIZ051-052-058>065-066-070>072-040500-
SOUTHEAST WISCONSIN

CITY           SKY/WX    TMP DP  RH WIND       PRES   REMARKS
MILWAUKEE      PTCLDY    72  50  45 W7        29.89R
WAUKESHA       PTCLDY    64  50  59 W7        29.91S
MILWAUKEE/TIMM PTCLDY    68  48  49 NW6       29.90R
RACINE         PTCLDY    68  52  56 W5        29.91R
BURLINGTON     PTCLDY    59  53  80 W3        29.91R
KENOSHA        CLEAR     61  55  81 W5        29.90R
FOND DU LAC    MOCLDY    65  55  70 W7        29.89S
SHEBOYGAN      CLEAR     64  55  72 W3        29.88R
WEST BEND      CLEAR     64  52  63 W3        29.90R
JUNEAU         CLEAR     62  53  72 CALM      29.92R
$$

LSZ147-162-040500-
LAKE SUPERIOR

STATION/POSITION TIME  TEMP    WIND        PRES    WAVE
                       AIR SEA DIR/SP/G            HT/PER
                 (UTC) (F)     (DEG/KT/KT) (MB)    (FT/S)
W MID LAKE BUOY  0350   58 56  280/ 12/ 14 1009.8R   2/ 4
DEVILS ISLAND    0400   57     260/ 12/ 14 1011.2R
PORT WING        0340   63     270/  5/  7 1012.2R
SAXON HARBOR     0340   64     260/  5     1011.2R
$$

LMZ867-665-643>646-040500-
LAKE MICHIGAN

STATION/POSITION TIME  TEMP    WIND        PRES    WAVE
                       AIR SEA DIR/SP/G            HT/PER
                 (UTC) (F)     (DEG/KT/KT) (MB)    (FT/S)
CHAMBERS ISLAND  0300   60     230/  2/  3 1010.5R
N MID LAKE BUOY  0350   65 68  180/  2/  4 1009.8F   1
NORTHPORT PIER   0300   69     310/ 10/ 14 1010.2R
SISTER BAY       0318   69     350/ 12/ 13   N/A
ALGOMA LAKESHORE 0312             CALM       N/A
KEWAUNEE LAKESHO 0300   66     300/  2/  3 1010.3R
SHEBOYGAN LAKESH 0400   69     270/  5/  7 1011.8R
PORT WASHINGTON  0340   70     280/  3/  6 1012.2R
ATWATER BUOY     0400   68 65  290/  8/ 10 1013.5R
MILWAUKEE LAKESH 0300   74     290/  8/ 11   N/A
KENOSHA   LAKESH 0400   72     280/  7/  9 1011.9R
$$

TC  - TEMPERATURE IN CELSIUS
VSB - VISIBILITY IN STATUTE MILES
WCI - WIND CHILL INDEX
HX  - HEAT INDEX




USA.gov is the U.S. government's official web portal to all federal, state and local government web resources and services.